User: anonymous   Login
Location: Camaret
(48.2753°N, 4.5961°W)
Time: 11:19:14
(UTC+00:00)
Language:

IRS-1C Rocket - Orbit

View from above orbital plane
View from above orbital plane
View from above satellite
View from above satellite

Ground track
Ground track

The orbit data is extracted from the following two-line orbital elements,

1 23753U 95072C   21019.05432974 -.00000051  00000-0 -18352-5 0  9992
2 23753  98.9640  44.3382 0004550  68.7311 291.4354 14.26596705304484
Epoch (UTC): 19 January 2021 01:18:14
Eccentricity: 0.0004550
inclination: 98.9640°
perigee height: 800 km
apogee height: 806 km
right ascension of ascending node: 44.3382°
argument of perigee: 68.7311°
revolutions per day: 14.26596705
mean anomaly at epoch: 291.4354°
orbit number at epoch: 30448

The dashed part of the orbit path shows where the satellite is in the earth's shadow,  

DLR